Location: London
(51.5074°N, 0.1278°W)
Time: 22:53:43
(UTC+01:00)

N. Korean satellite - Pass Details

Date: 26 September 2021
Orbit: 450 x 494 km, 97.3° (Epoch: 28 October)

Event Time Altitude Azimuth Distance (km) Brightness Sun altitude
Rises 05:34:02 0° 25° (NNE) 2,530 10.8 -13.0°
Reaches altitude 10° 05:36:26 10° 41° (NE) 1,656 10.1 -12.7°
Maximum altitude 05:39:15 22° 93° (E) 1,109 9.4 -12.2°
Drops below altitude 10° 05:42:04 10° 146° (SE) 1,665 9.6 -11.8°
Sets 05:44:29 0° 162° (SSE) 2,548 10.3 -11.4°
